STARLINK-1350 (45535 NORAD) Tracking and Keplerian Element Data

This shows tracking and keplerian element data for the satellite.

Feedback or suggestion? Click here.




ElementValue
Catalog45535
NameSTARLINK-1350
Epoch Orbit628
Epoch Day149.41668981
Epoch Year2020
RAAN225.8054
Inclination52.9987
Eccentricity0.0001667
Argument of Perigee326.8317
Mean Anonmoly271.5239
Mean Motion15.34217747
Decay Rate0.03594553
L11 45535U 20025E 20149.41668981 .03594553 00000-0 93801-1 0 9996
L22 45535 52.9987 225.8054 0001667 326.8317 271.5239 15.34217747 6286

Live tracking and technical data element details for STARLINK-1350 (NORAD 45535). STARLINK-1350 can be tracked NOW for your location showing map with azimuth and elevation plus other details from your city location.

Track the satellite on the map from your city or location and see movement details for azimuth, elevation, latitude, longitude, range, height, and movement on the map or in text.







IsCatalogInMostPopularTable: catalog: 45535, numindb: 7
Update: records affected: 1



GetName: 45535 STARLINK-1350

Hit Count: updated at: Sat, 30 May 2020 15:11:46 GMT